Other Public Products
Issued by NWS Grand Forks, ND

Home | Current Version | Previous Version | Graphics & Text | Print | Product List | Glossary On
Versions: 1 2 3 4 5 6 7 8 9 10 11 12 13 14 15 16 17 18 19 20 21 22 23 24 25 26 27 28 29 30 31 32 33 34 35 36 37 38 39 40 41 42 43 44 45 46 47 48 49 50
000
FPUS83 KFGF 281710
OPUFGF
PRAIRIE TO PINES WEATHER ROUNDUP
NATIONAL WEATHER SERVICE EASTERN NORTH DAKOTA/GRAND FORKS ND
1200 PM CDT THU APR 28 2016

 **SATELLITE DATA USED TO AUGMENT SKY COVER AT AUTOMATED STATIONS**
 *****  WEATHER ACROSS EASTERN NORTH DAKOTA  *****

CITY           SKY/WX    TMP DP  RH WIND       PRES   REMARKS
GRAND FORKS    PTSUNNY   54  19  25 NE16G23   30.12S
GRAND FORKS AF CLOUDY    54  17  23 E15       30.13S
GRAND CITY NWS NOT AVBL
BUXTON         NOT AVBL
DEVILS LAKE    MOSUNNY   50  20  30 NE14      30.14S
FARGO          CLOUDY    53  19  26 N8G20     30.06F
WAHPETON ARPT  PTSUNNY   45  28  53 NE13      30.05R
$$

 *****  WEATHER ACROSS CENTRAL AND WESTERN NORTH DAKOTA  *****

CITY           SKY/WX    TMP DP  RH WIND       PRES   REMARKS
JAMESTOWN      PTSUNNY   51  26  37 NE17      30.07R
BISMARCK       CLOUDY    50  31  48 N7        30.11R
MINOT          MOSUNNY   54  19  25 NE9       30.14F
MINOT AFB      PTSUNNY   51  21  30 NE16      30.14S
GARRISON         N/A     50  27  40 E10       30.12S
WILLISTON      CLOUDY    50  25  37 E7        30.16S
DICKINSON      CLOUDY    41  31  67 E8        30.09R
HETTINGER      CLOUDY    37  34  89 NE9       30.10R
$$

 *****  OTHER OBSERVATIONS NORTHEAST NORTH DAKOTA  *****

CITY           SKY/WX    TMP DP  RH WIND       PRES   REMARKS
WALHALLA       FAIR      48  27  43 NE12G18   30.19S
LANGDON        FAIR      46  21  36 NE8G15    30.17S
CAVALIER       FAIR      48  25  40 NE8       30.18S
GRAFTON        FAIR      50  21  32 NE15      30.17F
CANDO          FAIR      52  18  25 NE15      30.17S
FORT TOTTEN    NOT AVBL
ROLLA          FAIR      48  12  23 NE20      30.18R
RUGBY          FAIR      50  18  27 NE18G25   30.15S
 ***** THE ABOVE OBSERVATIONS ARE NON NWS ARE NOT QUALITY
        CONTROLLED AND MAY MIS-REPORT RAIN FOR SNOW...
$$

 *****  OTHER OBSERVATIONS SOUTHEAST NORTH DAKOTA *****

CITY           SKY/WX    TMP DP  RH WIND       PRES   REMARKS
COOPERSTOWN    NOT AVBL
VALLEY CITY    FAIR      50  25  37 NE13G20   30.09S
OAKES            N/A    N/A N/A N/A MISG        N/A
GWINNER        CLOUDY    48  36  61 NE13      30.05S
SHEYENNE NWR     N/A     48  29  47 NE8       29.95S
BUFFALO        NOT AVBL
WYNDMERE         N/A     46  32  57 N12         N/A
 ***** THE ABOVE OBSERVATIONS ARE NON NWS ARE NOT QUALITY
       CONTROLLED AND MAY MIS-REPORT RAIN FOR SNOW...
$$

  *****  WEATHER ACROSS NORTHERN MINNESOTA  *****

CITY           SKY/WX    TMP DP  RH WIND       PRES   REMARKS
FLAG ISLAND    MOSUNNY   45  19  36 N14       30.19S
WARROAD        MOSUNNY   45  25  45 NE12G18   30.19R
ROSEAU         CLOUDY    48  28  46 NE12      30.17S
HALLOCK        PTSUNNY   52  12  20 NE12      30.17R
THF RVR FALLS  CLOUDY    48  19  32 NE15      30.14S
HALSTAD        NOT AVBL
FOSSTON        PTSUNNY   48  21  34 NE12      30.10S
BAUDETTE       CLOUDY    50  17  27 NE9       30.15S
WASKISH        CLOUDY    50  21  32 N12G17    30.13S
CROOKSTON      CLOUDY    52  18  25 E13G18    30.12F
$$
  *****  WEATHER ACROSS CENTRAL AND WEST MINNESOTA  *****

CITY           SKY/WX    TMP DP  RH WIND       PRES   REMARKS
BEMIDJI        CLOUDY    48  20  33 E9        30.09S
PARK RAPIDS    CLOUDY    49  17  28 NE15      30.05S
WADENA         PTSUNNY   46  19  34 NE14G21   30.03R
DETROIT LAKES  CLOUDY    48  19  32 E13G18    30.06R
MOORHEAD       MOSUNNY   52  21  30 NE12G17   30.07S
FERGUS FALLS   CLOUDY    46  21  36 E13       30.03R
ELBOW LAKE     CLOUDY    43  28  54 NE10      30.03S
MORRIS MN      CLOUDY    43  28  56 E7        30.02R
STAPLES        CLOUDY    46  18  31 E9        30.04R
WHEATON        CLOUDY    45  27  49 N7        30.06R
$$
  *****  WEATHER ELSEWHERE ACROSS MINNESOTA  *****

CITY           SKY/WX    TMP DP  RH WIND       PRES   REMARKS
DULUTH         PTSUNNY   46  24  42 E18G25    30.08R
INTRNTL FALLS  MOSUNNY   48  21  34 NE10G17   30.15S
ELY            CLOUDY    45  18  33 E6        30.12R
CLOQUET        CLOUDY    45  19  36 E13       30.06S
BRAINERD       CLOUDY    49  19  30 NE17G23   30.04R
HIBBING        PTSUNNY   47  23  38 NE6       30.09S
ALEXANDRIA     CLOUDY    44  24  45 NE10      30.03R
SAINT CLOUD    LGT RAIN  42  29  59 E9        30.02R
MINNEAPOLIS    CLOUDY    39  34  82 NE14      30.00R
$$

  *****  WEATHER ACROSS SOUTH DAKOTA  *****

CITY           SKY/WX    TMP DP  RH WIND       PRES   REMARKS
SIOUX FALLS    CLOUDY    38  36  92 N14       29.97R
BROOKINGS      CLOUDY    36  33  89 NE10      29.98R
WATERTOWN      LGT SNOW  35  32  88 NE12      30.01R FOG
HURON          LGT RAIN  39  36  89 NE14      30.03R
SISSETON         N/A     42  28  57 SE5       30.03R
ABERDEEN       CLOUDY    47  33  58 NE9       30.05R
MITCHELL       LGT RAIN  40  37  89 N13       30.01R
PIERRE         CLOUDY    40  35  83 N9        30.03S
MOBRIDGE       CLOUDY    47  37  68 N10       30.05R
RAPID CITY     CLOUDY    35  33  92 NW10      30.05R
$$

  *****  SOME WEATHER IN NEARBY STATES *****

CITY           SKY/WX    TMP DP  RH WIND       PRES   REMARKS
GLASGOW MT     CLOUDY    47  32  56 E13       30.15S
GREAT FALLS MT LGT RAIN  36  33  89 NE12      30.10S
CHEYENNE WY    CLOUDY    34  26  72 NE5       29.96S
SCOTTSBLUFF NE CLOUDY    43  31  62 NE10      30.00F
OMAHA NE       CLOUDY    49  43  80 NW13      29.92R
DES MOINES IA  CLOUDY    54  44  69 W8        29.85R
DAVENPORT IA   CLOUDY    50  46  86 E13       29.87R
CHICAGO IL     CLOUDY    45  41  86 NE13      29.89S
EAU CLAIRE WI  LGT RAIN  39  35  86 NE12      30.00S
LA CROSSE WI   CLOUDY    45  34  65 E8        29.94R
$$

  *****  SOME NATIONAL WEATHER *****

CITY           SKY/WX    TMP DP  RH WIND       PRES   REMARKS
LA GUARDIA NY  CLOUDY    57  22  25 NE7       30.04F
RALEIGH NC     MOSUNNY   79  67  66 SW7       29.91F
ATLANTA GA     MOSUNNY   78  61  55 SW13      29.97F
NEW ORLEANS LA CLOUDY    75  69  81 NE20G30   29.93R
OKLAHOMA CITY  PTSUNNY   66  45  46 NE10      29.96S
ALBUQUERQUE NM MOSUNNY   66  18  15 S21G26    29.79F
SALT LAKE CITY CLOUDY    50  38  63 NW7       29.72R
LOS ANGELES CA FAIR      63  46  54 CALM      29.85R
BOISE ID       FAIR      55  42  61 NW6       29.84F
SEATTLE WA     PTSUNNY   54  46  74 SW7       30.12S
$$

*** WEATHER ACROSS MANITOBA...SASKATCHEWAN AND ONTARIO ***
                ***ONTARIO***

CITY           SKY/WX    TMP DP  RH WIND       PRES   REMARKS
GERALDTON      PTSUNNY   43  25  49 VRB2      30.17F
THUNDER BAY    PTSUNNY   46  25  42 E12       30.17F
SIOUX LOOKOUT  CLOUDY    45  18  33 VRB5      30.21F
TORONTO        CLOUDY    45  21  39 E13       30.07F
BIG TROUT LK   CLOUDY    36  25  64 NW7       30.30S
PICKLE LAKE    PTSUNNY   41  21  45 N5        30.22F
DRYDEN         CLOUDY    46  16  29 NE12G17   30.20S
KENORA         PTSUNNY   48  12  23 NE8G20    30.21R
$$
                *** MANITOBA***

CITY           SKY/WX    TMP DP  RH WIND       PRES   REMARKS
BRANDON        CLOUDY    52  14  22 E18G28    30.22S
DAUPHIN        SUNNY     52  16  24 NE13G18   30.29S
ISLAND LAKE    MOSUNNY   41   9  26 NW7       30.37S
PILOT MOUND    NOT AVBL
THE PAS        MOSUNNY   46  25  42 NW7       30.35S
THOMPSON       MOSUNNY   46  18  31 VRB6      30.39F
WINNIPEG       PTSUNNY   52  14  22 N15G21    30.22S
LYNN LAKE      CLOUDY    48  21  34 S14       30.28F
CHURCHILL      MOSUNNY   27  21  80 NE6       30.50S WCI  20
GILLAM         MOSUNNY   39  12  33 N5        30.43F
$$
                ***SASKATCHEWAN***

CITY           SKY/WX    TMP DP  RH WIND       PRES   REMARKS
ESTEVAN        CLOUDY    55  16  21 E14G22    30.18S
KINDERSLEY     PTSUNNY   54  25  32 E7        30.20S
LLOYDMINSTER   PTSUNNY   55  34  44 S15       30.20S
PRINCE ALBERT  CLOUDY    55  25  30 NE3       30.27S
REGINA         PTSUNNY   54  16  22 E14       30.22S
YORKTON        SUNNY     54  18  24 E14G20    30.26S  C1F1C2F2C3F3C4F4C5F5C6F6C7F7C8F8C9F9CaFaCbFbCcFcCdFdCe!



USA.gov is the U.S. government's official web portal to all federal, state and local government web resources and services.